Weather History for KQIR - October, 2012

Change the Weather History Date:

Monday, October 15, 2012

  Actual Average Record
Temperature  
Mean Temperature 84 °F -  
Max Temperature 96 °F - - ()
Min Temperature 72 °F - - ()
Cooling Degree Days 19    
Growing Degree Days 34 (Base 50)    
Moisture  
Dew Point 61 °F    
Average Humidity 49    
Maximum Humidity 86    
Minimum Humidity 22    
Precipitation  
Precipitation 0.00 in - - ()
Sea Level Pressure  
Sea Level Pressure 29.91 in    
Wind  
Wind Speed 9 mph ()    
Max Wind Speed 20 mph    
Max Gust Speed 28 mph    
Visibility 6.2 miles    
Events      
T = Trace of Precipitation, MM = Missing Value Source: Averaged Metar Reports

Daily Weather History Graph

Daily Weather History Graph

Search for Another Location

Airport or City:

Trip Planner

Search our weather history database for the weather conditions in past years. The results will help you decide how hot, cold, wet, or windy it might be!

Date:

Astronomy

Oct. 15, 2012 Rise Set
Actual Time 5:33 AM AST 5:07 PM AST
Civil Twilight 5:10 AM AST 5:30 PM AST
Nautical Twilight 4:43 AM AST 5:57 PM AST
Astronomical Twilight 4:16 AM AST 6:23 PM AST
Moon 5:12 AM AST (10/15) 4:56 PM AST (10/15)
Length of Visible Light 12h 20m
Length of Day
11h 34m
Waning Crescent, 0% of the Moon is Illuminated
Oct 15
Waning Crescent
Oct 15
New
Oct 22
First Quarter
Oct 29
Full
Nov 7
Last Quarter

Hourly Weather History & Observations

Time (AST) Temp. Heat Index Dew Point Humidity Pressure Visibility Wind Dir Wind Speed Gust Speed Precip Events Conditions
12:55 AM 77.9 °F - 67.5 °F 70% 29.90 in 6.2 mi NW 6.9 mph - N/A   Clear
1:55 AM 77.5 °F - 68.0 °F 72% 29.89 in 6.2 mi NNW 6.9 mph - N/A   Clear
2:55 AM 75.7 °F - 67.5 °F 75% 29.89 in 6.2 mi WNW 5.8 mph - N/A   Clear
3:55 AM 74.3 °F - 67.1 °F 78% 29.89 in 6.2 mi West 5.8 mph - N/A   Clear
4:55 AM 73.4 °F - 67.8 °F 83% 29.90 in 6.2 mi West 6.9 mph - N/A   Clear
5:55 AM 72.5 °F - 68.2 °F 86% 29.91 in 6.2 mi West 6.9 mph - N/A   Clear
6:55 AM 76.8 °F - 68.0 °F 74% 29.94 in 6.2 mi West 5.8 mph - N/A   Clear
7:55 AM 84.9 °F 85.6 °F 62.4 °F 47% 29.95 in 6.2 mi WNW 11.5 mph - N/A   Clear
8:55 AM 89.2 °F 89.0 °F 60.4 °F 38% 29.96 in 6.2 mi NW 12.7 mph - N/A   Clear
9:55 AM 92.5 °F 91.6 °F 58.5 °F 32% 29.96 in 6.2 mi WNW 12.7 mph - N/A   Clear
10:55 AM 94.5 °F 93.3 °F 57.2 °F 29% 29.93 in 6.2 mi NNW 17.3 mph 23.0 mph N/A   Partly Cloudy
11:07 AM 95.0 °F 93.7 °F 57.2 °F 28% 29.93 in 6.2 mi NW 16.1 mph - N/A   Light Drizzle
11:16 AM 95.0 °F 93.7 °F 57.2 °F 28% 29.93 in 6.2 mi NNW 12.7 mph 20.7 mph N/A   Clear
11:55 AM 95.9 °F 94.6 °F 57.4 °F 27% 29.91 in 6.2 mi NW 16.1 mph - N/A   Partly Cloudy
12:55 PM 96.8 °F - 52.9 °F 23% 29.88 in 6.2 mi NNW 18.4 mph 27.6 mph N/A   Partly Cloudy
1:55 PM 96.3 °F 95.1 °F 57.2 °F 27% 29.88 in 6.2 mi NW 18.4 mph - N/A   Partly Cloudy
2:55 PM 95.9 °F - 50.7 °F 22% 29.88 in 6.2 mi NW 17.3 mph 24.2 mph N/A   Clear
3:55 PM 94.8 °F - 52.2 °F 24% 29.88 in 6.2 mi NW 19.6 mph - N/A   Clear
4:55 PM 92.1 °F - 50.9 °F 24% 29.89 in 6.2 mi NW 17.3 mph - N/A   Clear
5:55 PM 88.2 °F 85.9 °F 53.2 °F 30% 29.90 in 6.2 mi NW 11.5 mph - N/A   Clear
6:55 PM 85.3 °F 85.7 °F 61.7 °F 45% 29.92 in 6.2 mi NNW 10.4 mph - N/A   Clear
7:55 PM 83.7 °F 86.0 °F 66.2 °F 56% 29.93 in 6.2 mi NW 9.2 mph - N/A   Clear
8:55 PM 81.9 °F 84.4 °F 67.1 °F 61% 29.93 in 6.2 mi NW 8.1 mph - N/A   Clear
9:55 PM 81.0 °F 83.4 °F 67.5 °F 63% 29.93 in 6.2 mi NW 8.1 mph - N/A   Clear
10:55 PM 79.3 °F - 67.6 °F 67% 29.92 in 6.2 mi WNW 9.2 mph - N/A   Clear
11:55 PM 78.3 °F - 67.1 °F 68% 29.91 in 6.2 mi NW 8.1 mph - N/A   Clear